Hourly Weather Beijing

Today, 8 July, Wednesday

Time Temperature Precipitation Wind Pressure Humidity
00:00 +28°C° 0 mm 2 mps 752 mmHg 42%
01:00 +28°C° 0 mm 1 mps 752 mmHg 45%
02:00 +27°C° 0 mm 1 mps 752 mmHg 53%
03:00 +26°C° 0 mm 1 mps 752 mmHg 54%
04:00 +26°C° 0 mm 1 mps 752 mmHg 56%
05:00 +25°C° 0 mm 1 mps 752 mmHg 58%
06:00 +26°C° 0 mm 1 mps 751 mmHg 55%
07:00 +28°C° 0 mm 1 mps 751 mmHg 52%
08:00 +29°C° 0 mm 1 mps 751 mmHg 44%
09:00 +31°C° 0 mm 1 mps 751 mmHg 39%
10:00 +34°C° 0 mm 2 mps 750 mmHg 35%
11:00 +35°C° 0 mm 3 mps 750 mmHg 31%
12:00 +36°C° 0 mm 3 mps 749 mmHg 30%
13:00 +37°C° 0 mm 3 mps 748 mmHg 28%
14:00 +37°C° 0 mm 4 mps 748 mmHg 28%
15:00 +37°C° 0 mm 4 mps 748 mmHg 28%
16:00 +37°C° 0 mm 4 mps 748 mmHg 28%
17:00 +37°C° 0 mm 4 mps 747 mmHg 28%
18:00 +36°C° 0 mm 4 mps 747 mmHg 31%
19:00 +35°C° 0 mm 4 mps 747 mmHg 33%
20:00 +34°C° 0 mm 4 mps 747 mmHg 36%
21:00 +33°C° 0 mm 4 mps 747 mmHg 34%
22:00 +31°C° 0 mm 3 mps 748 mmHg 33%
23:00 +30°C° 0 mm 3 mps 748 mmHg 31%

Tomorrow, 9 July, Thursday

Time Temperature Precipitation Wind Pressure Humidity
00:00 +29°C° 0 mm 2 mps 748 mmHg 34%
01:00 +28°C° 0 mm 2 mps 747 mmHg 37%
02:00 +28°C° 0 mm 1 mps 747 mmHg 40%
03:00 +27°C° 0 mm 2 mps 747 mmHg 43%
04:00 +27°C° 0 mm 2 mps 747 mmHg 46%
05:00 +26°C° 0 mm 2 mps 748 mmHg 49%
06:00 +27°C° 0.1 mm 2 mps 748 mmHg 50%
07:00 +27°C° 0.1 mm 3 mps 748 mmHg 51%
08:00 +27°C° 0.1 mm 3 mps 748 mmHg 53%
09:00 +26°C° 0.3 mm 3 mps 748 mmHg 55%
10:00 +26°C° 0.3 mm 4 mps 748 mmHg 57%
11:00 +25°C° 0.3 mm 4 mps 748 mmHg 59%
12:00 +25°C° 0.6 mm 3 mps 748 mmHg 59%
13:00 +25°C° 0.6 mm 2 mps 748 mmHg 59%
14:00 +25°C° 0.6 mm 1 mps 747 mmHg 59%
15:00 +26°C° 0 mm 1 mps 747 mmHg 54%
16:00 +28°C° 0 mm 1 mps 747 mmHg 49%
17:00 +29°C° 0 mm 1 mps 747 mmHg 44%
18:00 +28°C° 0 mm 1 mps 747 mmHg 46%
19:00 +27°C° 0 mm 1 mps 747 mmHg 48%
20:00 +27°C° 0 mm 1 mps 747 mmHg 50%
21:00 +27°C° 0 mm 1 mps 748 mmHg 51%
22:00 +26°C° 0 mm 1 mps 748 mmHg 52%
23:00 +24°C° 0 mm 0 mps 748 mmHg 54%

Day after tomorrow, 10 July, Friday

Time Temperature Precipitation Wind Pressure Humidity
00:00 +25°C° 0 mm 1 mps 748 mmHg 58%
01:00 +25°C° 0 mm 1 mps 748 mmHg 62%
02:00 +24°C° 0 mm 1 mps 748 mmHg 66%
03:00 +24°C° 0 mm 1 mps 748 mmHg 68%
04:00 +24°C° 0 mm 2 mps 748 mmHg 69%
05:00 +24°C° 0 mm 2 mps 748 mmHg 71%
06:00 +25°C° 0 mm 2 mps 748 mmHg 67%
07:00 +26°C° 0 mm 2 mps 748 mmHg 62%
08:00 +27°C° 0 mm 2 mps 748 mmHg 57%
09:00 +29°C° 0 mm 1 mps 748 mmHg 52%
10:00 +30°C° 0 mm 1 mps 748 mmHg 48%
11:00 +32°C° 0 mm 1 mps 748 mmHg 43%
12:00 +32°C° 0 mm 2 mps 748 mmHg 43%
13:00 +32°C° 0 mm 2 mps 747 mmHg 44%
14:00 +33°C° 0 mm 3 mps 747 mmHg 44%
15:00 +34°C° 0 mm 3 mps 746 mmHg 45%
16:00 +34°C° 0 mm 3 mps 746 mmHg 45%
17:00 +34°C° 0 mm 3 mps 746 mmHg 46%
18:00 +33°C° 0.1 mm 3 mps 746 mmHg 49%
19:00 +31°C° 0.1 mm 2 mps 747 mmHg 52%
20:00 +31°C° 0.1 mm 1 mps 748 mmHg 55%
21:00 +30°C° 0.5 mm 2 mps 748 mmHg 58%
22:00 +29°C° 0.5 mm 2 mps 748 mmHg 61%
23:00 +28°C° 0.5 mm 3 mps 748 mmHg 64%

11 July, Saturday

Time Temperature Precipitation Wind Pressure Humidity
00:00 +27°C° 0.2 mm 3 mps 748 mmHg 66%
01:00 +27°C° 0.2 mm 2 mps 748 mmHg 68%
02:00 +26°C° 0.2 mm 2 mps 748 mmHg 70%
03:00 +25°C° 0.4 mm 2 mps 748 mmHg 72%
04:00 +25°C° 0.4 mm 2 mps 748 mmHg 75%
05:00 +24°C° 0.4 mm 2 mps 748 mmHg 77%
06:00 +25°C° 0.1 mm 2 mps 748 mmHg 77%
07:00 +25°C° 0.1 mm 2 mps 749 mmHg 76%
08:00 +25°C° 0.1 mm 2 mps 749 mmHg 76%
09:00 +25°C° 0.1 mm 2 mps 749 mmHg 75%
10:00 +26°C° 0.1 mm 2 mps 749 mmHg 74%
11:00 +26°C° 0.1 mm 1 mps 749 mmHg 72%
12:00 +27°C° 0.2 mm 1 mps 749 mmHg 69%
13:00 +28°C° 0.2 mm 1 mps 749 mmHg 66%
14:00 +28°C° 0.2 mm 1 mps 748 mmHg 63%
15:00 +29°C° 0.1 mm 1 mps 748 mmHg 60%
16:00 +30°C° 0.1 mm 1 mps 748 mmHg 57%
17:00 +32°C° 0.1 mm 1 mps 748 mmHg 54%
18:00 +29°C° 0.3 mm 0 mps 748 mmHg 58%
19:00 +28°C° 0.3 mm 0 mps 749 mmHg 61%
20:00 +27°C° 0.3 mm 0 mps 749 mmHg 65%
21:00 +28°C° 0.5 mm 1 mps 749 mmHg 68%
22:00 +28°C° 0.5 mm 2 mps 750 mmHg 71%
23:00 +27°C° 0.5 mm 2 mps 750 mmHg 74%

12 July, Sunday

Time Temperature Precipitation Wind Pressure Humidity
00:00 +27°C° 0.8 mm 2 mps 750 mmHg 76%
01:00 +26°C° 0.8 mm 2 mps 749 mmHg 78%
02:00 +26°C° 0.8 mm 2 mps 749 mmHg 80%
03:00 +26°C° 0.3 mm 2 mps 749 mmHg 80%
04:00 +25°C° 0.3 mm 2 mps 749 mmHg 81%
05:00 +25°C° 0.3 mm 1 mps 749 mmHg 81%
06:00 +26°C° 0.7 mm 2 mps 749 mmHg 79%
07:00 +26°C° 0.7 mm 2 mps 749 mmHg 78%
08:00 +26°C° 0.7 mm 2 mps 750 mmHg 76%
09:00 +27°C° 1.2 mm 2 mps 749 mmHg 75%
10:00 +27°C° 1.2 mm 1 mps 749 mmHg 74%
11:00 +27°C° 1.2 mm 1 mps 749 mmHg 72%
12:00 +28°C° 2 mm 1 mps 749 mmHg 72%
13:00 +28°C° 2 mm 1 mps 749 mmHg 71%
14:00 +28°C° 2 mm 1 mps 749 mmHg 71%
15:00 +29°C° 0.5 mm 1 mps 749 mmHg 67%
16:00 +29°C° 0.5 mm 1 mps 748 mmHg 63%
17:00 +28°C° 0.5 mm 0 mps 748 mmHg 59%
18:00 +29°C° 0.1 mm 1 mps 748 mmHg 62%
19:00 +29°C° 0.1 mm 1 mps 749 mmHg 65%
20:00 +28°C° 0.1 mm 1 mps 749 mmHg 67%
21:00 +27°C° 0.1 mm 1 mps 749 mmHg 69%
22:00 +27°C° 0.1 mm 1 mps 749 mmHg 71%
23:00 +26°C° 0.1 mm 1 mps 749 mmHg 73%

13 July, Monday

Time Temperature Precipitation Wind Pressure Humidity
00:00 +26°C° 0.6 mm 1 mps 749 mmHg 74%
01:00 +26°C° 0.6 mm 1 mps 748 mmHg 75%
02:00 +26°C° 0.6 mm 1 mps 748 mmHg 75%
03:00 +25°C° 1.4 mm 1 mps 748 mmHg 76%
04:00 +25°C° 1.4 mm 1 mps 748 mmHg 77%
05:00 +25°C° 1.4 mm 1 mps 748 mmHg 77%
06:00 +26°C° 0.7 mm 1 mps 748 mmHg 75%
07:00 +26°C° 0.7 mm 1 mps 748 mmHg 74%
08:00 +24°C° 0.7 mm 0 mps 748 mmHg 72%
09:00 +26°C° 1.1 mm 1 mps 748 mmHg 72%
10:00 +26°C° 1.1 mm 1 mps 748 mmHg 71%
11:00 +26°C° 1.1 mm 2 mps 748 mmHg 71%
12:00 +26°C° 0.2 mm 1 mps 748 mmHg 69%
13:00 +26°C° 0.2 mm 1 mps 748 mmHg 67%
14:00 +27°C° 0.2 mm 1 mps 749 mmHg 65%
15:00 +26°C° 0 mm 1 mps 748 mmHg 65%
16:00 +26°C° 0 mm 2 mps 748 mmHg 66%
17:00 +26°C° 0 mm 2 mps 748 mmHg 66%
18:00 +26°C° 0 mm 2 mps 748 mmHg 66%
19:00 +26°C° 0 mm 2 mps 748 mmHg 66%
20:00 +26°C° 0 mm 1 mps 748 mmHg 67%
21:00 +25°C° 0 mm 1 mps 748 mmHg 67%
22:00 +25°C° 0 mm 1 mps 748 mmHg 68%
23:00 +25°C° 0 mm 2 mps 748 mmHg 68%
Show more